Flag for El Salvador Weather past 2 weeks in Santa Ana, El Salvador

Now
77 °F

Clear.


Feels Like: 78 °F
Forecast: 63 / 89 °F
Wind: No wind

Location: San Salvador / Ilopango

Current Time: Jul 30, 2014 at 10:19:59 PM

Latest Report: Jul 30, 2014 at 9:50 PM


Visibility: 10 mi

Pressure: 30.01 "Hg

Humidity: 83%

Dew point: 72 °F

Location of Santa AnaLocation

Historic Weather in Santa Ana — Graph

°F

Santa Ana temperature yesterday

Maximum temperature yesterday: 90 °F (at 2:50 PM)
Minimum temperature yesterday: 70 °F (at 5:50 AM)
Average temperature yesterday: 81 °F

Past Weeks' High & Low Weather Summary

 TemperatureHumidityPressure
High91 °F (Jul 21, 1:50 PM)100% (Jul 16, 10:50 PM)30.07 "Hg (Jul 16, 10:50 PM)
Low68 °F (Jul 27, 5:50 AM)49% (Jul 20, 12:50 PM)29.80 "Hg (Jul 29, 6:50 PM)
Average81 °F76%29.99 "Hg
* Reported Jul 15 8:50 PM — Jul 30 8:50 PM, Santa Ana, Weather by CustomWeather, © 2014

Note: Actual official high and low records may vary slightly from our data, if they occured in-between our weather recording intervals... More about our weather records

Advertising

Santa Ana weather history for previous 24 hours

 ConditionsComfort  
Time TempWeatherWind HumidityBarometerVisibility
8:50 PM
Jul 30
77 °FClear.3 mph83%30.01 "Hg10 mi
7:50 PM79 °FClear.2 mph84%29.98 "Hg10 mi
6:50 PM79 °FPassing clouds.2 mph84%29.98 "HgN/A
5:50 PM82 °FSunny.3 mph74%29.95 "Hg10 mi
4:50 PM90 °FSunny.2 mph59%29.92 "Hg10 mi
3:50 PM90 °FSunny.2 mph52%29.95 "Hg10 mi
2:50 PM90 °FSunny.3 mph55%29.98 "Hg10 mi
1:50 PM90 °FSunny.3 mph55%29.98 "Hg10 mi
12:50 PM90 °FSunny.3 mph55%30.01 "Hg10 mi
11:50 AM86 °FSunny.5 mph62%30.01 "Hg10 mi
10:50 AM86 °FSunny.3 mph59%30.01 "Hg10 mi
9:50 AM82 °FSunny.3 mph66%30.04 "Hg10 mi
8:50 AM81 °FSunny.6 mph74%30.04 "Hg10 mi
7:50 AM81 °FSunny.5 mph70%30.04 "Hg10 mi
6:50 AM72 °FSunny.5 mph88%30.01 "Hg10 mi
5:50 AM70 °FSunny.2 mph94%30.04 "Hg10 mi
11:50 PM
Jul 29
75 °FPassing clouds.2 mph83%30.04 "HgN/A
10:50 PM75 °FClear.3 mph83%30.01 "Hg10 mi
Weather by CustomWeather, © 2014

See weather overviewHow to use our weather pages